Regional Weather Roundup
Issued by NWS

Home | Current Version | Previous Version | Text Only | Print | Product List | Glossary On
Versions: 1 2 3 4 5 6 7 8 9 10 11 12 13 14 15 16 17 18 19 20 21 22 23 24 25 26 27 28 29 30 31 32 33 34 35 36 37 38 39 40 41 42 43 44 45 46 47 48 49 50
000
ASUS43 KDTX 220710
RWRMI
MICHIGAN HOURLY REGIONAL WEATHER ROUNDUP
NATIONAL WEATHER SERVICE DETROIT/PONTIAC MI
300 AM EDT TUE AUG 22 2017

NOTE: "FAIR" INDICATES FEW OR NO CLOUDS BELOW 12,000 FEET WITH NO
SIGNIFICANT WEATHER AND/OR OBSTRUCTION TO VISIBILITY.

MIZ047>049-052>055-059>063-066>070-074>076-081>083-220800-
SOUTHEAST LOWER MICHIGAN

CITY           SKY/WX    TMP DP  RH WIND       PRES   REMARKS
ADRIAN         MOCLDY    72  68  87 SW7       29.94F
ALMA           CLOUDY    70  66  87 S9        29.84F
ANN ARBOR      PTCLDY    73  69  87 S8        29.91F
BAD AXE        PTCLDY    70  64  81 SW3       29.84F
CARO           CLOUDY    72  62  71 SW6       29.85F
DETROIT CITY   CLOUDY    77  69  76 SW10      29.90F
DETROIT        CLOUDY    75  71  87 S10       29.91F
FLINT          CLOUDY    74  65  73 SW8       29.87F
GROSSE ILE     MOCLDY    76  71  85 SW10      29.91F
HILLSDALE      CLOUDY    72  68  88 S6        29.93F
HOWELL         MOCLDY    70  67  90 S8        29.89F

CITY           SKY/WX    TMP DP  RH WIND       PRES   REMARKS
JACKSON        PTCLDY    72  68  87 S12       29.90F
LAMBERTVILLE   CLOUDY    74  68  82 SW6       29.92F
LANSING        CLOUDY    71  67  87 S10       29.88F
LAPEER         FAIR      74  62  66 SW5       29.88S
MASON          CLOUDY    71  68  89 S6        29.89F
MONROE         PTCLDY    74  70  86 S5        29.91F
MT. CLEMENS    CLOUDY    76  69  80 S7        29.87F
PONTIAC        CLOUDY    73  67  81 SW6       29.89F
PORT HOPE        N/A     74  65  73 SW6       29.81F
PORT HURON     PTCLDY    73  70  88 S3        29.88F
TRI CITIES     MOCLDY    73  67  81 S10       29.84F
MIDLAND        FAIR      71  64  79 S8        29.82F
TROY           CLOUDY    76  66  70 S9        29.91F
SAGINAW HB     CLOUDY    72  64  78 SW10      29.84F
$$
MIZ043>046-050>051-056>058-064>065-071>073-077>080-220800-
SOUTHWEST LOWER MICHIGAN

CITY           SKY/WX    TMP DP  RH WIND       PRES   REMARKS
BATTLE CREEK   LGT RAIN  73  71  93 S13       29.89F
BENTON HARBOR  LGT RAIN  71  67  87 S9        29.86F
BIG RAPIDS     PTCLDY    71  66  84 SW5       29.82F
COLDWATER      CLOUDY    73  70  90 SW8       29.91F
FREMONT        CLOUDY    70  70 100 S3        29.81F
HOLLAND        CLOUDY    75  70  84 SW17G24   29.85F
GRAND RAPIDS   CLOUDY    72  70  93 S9        29.85F
IONIA          FAIR      71  68  92 S9        29.85F
KALAMAZOO      CLOUDY    74  69  85 SW12      29.89F
LUDINGTON      CLOUDY    71  69  92 SW8       29.79F
MARSHALL       CLOUDY    72  71  98 S8        29.89F
MOUNT PLEASANT CLOUDY    74  66  76 S7        29.81F
MUSKEGON       CLOUDY    76  72  87 S13       29.81F
SOUTH HAVEN    DRIZZLE   73  68  86 SW12G20   29.86F
$$
MIZ016>042-220800-
NORTHERN LOWER MICHIGAN

CITY           SKY/WX    TMP DP  RH WIND       PRES   REMARKS
ALPENA         CLEAR     71  69  93 S5        29.78F
BEAVER ISLAND  RAIN      71  69  95 SW12      29.74F
BELLAIRE       CLOUDY    70  68  93 S5        29.76F
CADILLAC       CLOUDY    73  68  84 SW12G20   29.81F
CHARLEVOIX     CLOUDY    72  72 100 SW7       29.77F
FRANKFORT      LGT RAIN  72  72  99 SW7       29.77F
GAYLORD        CLOUDY    69  66  90 SW10      29.80F
GRAYLING       CLOUDY    70  66  87 S6        29.81F
HARBOR SPRINGS CLOUDY    69  68  95 CALM      29.75F
HOUGHTON LAKE  MOCLDY    72  67  84 SW7       29.82F
MANISTEE       CLOUDY    74  69  85 SW9       29.78F
OSCODA         CLEAR     73  70  91 SW9       29.80F
PELLSTON       CLOUDY    69  68  96 SE3       29.74F
ROGERS CITY    CLEAR     66  65  97 CALM      29.77F
TRAVERSE CITY  CLOUDY    74  68  81 VRB5      29.75F
$$
MIZ007>008-015-220800-
EASTERN UPPER MICHIGAN

CITY           SKY/WX    TMP DP  RH WIND       PRES   REMARKS
KINROSS        CLOUDY    66  66 100 S5        29.72F
MACKINAC ISLAN CLOUDY    68  68 100 S7        29.73F
NEWBERRY       CLOUDY    67  66  97 SW10G17   29.71F FOG
S. S. MARIE    CLOUDY    68  66  93 SE5       29.72F FOG
MUNISING         N/A     65  65 100 CALM      29.69F
$$
MIZ004>006-011>014-085-220800-
CENTRAL UPPER MICHIGAN

CITY           SKY/WX    TMP DP  RH WIND       PRES   REMARKS
MANISTIQUE     CLOUDY    67  61  81 CALM      29.71F HAZE
ESCANABA       LGT RAIN  67  66  97 SW8       29.72F
MENOMINEE      CLOUDY    70  65  84 SW6       29.75F
SAWYER-GWINN   PTCLDY    63  62  97 S8        29.72F
$$
MIZ001>003-009>011-084-220800-
WESTERN UPPER MICHIGAN

CITY           SKY/WX    TMP DP  RH WIND       PRES   REMARKS
IRON MOUNTAIN  CLOUDY    68  64  87 SW6       29.73F
HOUGHTON       LGT RAIN  57  55  93 N16G22    29.72F
COPPER HARBOR    N/A     58  56  93 NE12      29.71F
IRONWOOD       CLOUDY    56  55  97 N3        29.81R
$$

ABBREVIATIONS USED IN REMARKS
   TC - TEMPERATURE IN CELSIUS
  WCI - WIND CHILL INDEX
   HX - HEAT INDEX
  VSB - VISIBILITY




USA.gov is the U.S. government's official web portal to all federal, state and local government web resources and services.